Starlink 33691

operational
NORAD ID: 63462 Int'l Des: 2025-070 Owner: SPXS Country: US Constellation: starlink
LEOCIRCULAR

关于 Starlink 33691

正在加载描述...

实时位置

正在加载3D地球...

即将过境

高度历史

Altitude vs Time

uPlot chart will show altitude changes over time

两行轨道根数

1 63462U 25070C 25353.41593402 .00020175 00000-0 74031-3 0 9994
2 63462 43.0005 352.7974 0001450 280.2443 79.8245 15.27595564 40654
Epoch: Dec 19, 2025 • Age: 12 hours

当前状态

高度 484.3 km
速度 7.62 km/s
星下点 -11.14°S, 88.01°W
发射日期 Apr 6, 2025
运行时间 0.7 years
类型 internet

技术详情

分类 Payload
质量 575.00 kg
干质量 530.00 kg
总质量 575.00 kg
长度 0.30 m
直径 4.10 m
跨度 29.00 m
形状 Box + pan
制造商 SPXS
平台类型 Starlink V2MO
阶段状态 In Orbit
所有者/国家 SPXS/US

大型星座

Loading constellations...